Regional Weather Roundup
Issued by NWS

Home | Current Version | Previous Version | Text Only | Print | Product List | Glossary Off
Versions: 1 2 3 4 5 6 7 8 9 10 11 12 13 14 15 16 17 18 19 20 21 22 23 24 25 26 27 28 29 30 31 32 33 34 35 36 37 38 39 40 41 42 43 44 45 46 47 48 49 50

000
ASUS43 KMKX 051221
RWRWI

WISCONSIN REGIONAL WEATHER ROUNDUP
NATIONAL WEATHER SERVICE MILWAUKEE/SULLIVAN WI
700 AM CDT THU MAY 05 2016

NOTE: "FAIR" INDICATES FEW OR NO CLOUDS BELOW 12,000 FEET WITH NO
SIGNIFICANT WEATHER AND/OR OBSTRUCTIONS TO VISIBILITY.

WIZ001-002-006>008-014>016-023>028-051300-
NORTHWEST WISCONSIN

CITY           SKY/WX    TMP DP  RH WIND       PRES   REMARKS
SUPERIOR ARPT  CLOUDY    38  36  92 CALM      30.03R
6HR MIN TEMP:  30; 6HR MAX TEMP:  38; 6HR PCP:  0.03;

ASHLAND        CLOUDY    33  32  96 S3        30.04R
6HR MIN TEMP:  28; 6HR MAX TEMP:  33;

HAYWARD        PTSUNNY   32  28  85 CALM      30.05R
6HR MIN TEMP:  28; 6HR MAX TEMP:  32;

SIREN          LGT RAIN  40  38  93 SE3       30.05S
6HR MIN TEMP:  32; 6HR MAX TEMP:  40; 6HR PCP:  0.06;

CUMBERLAND     CLOUDY    37  32  81 CALM      30.05S
RICE LAKE      CLOUDY    37  32  82 CALM      30.07R
6HR MIN TEMP:  34; 6HR MAX TEMP:  38;

CHETEK         CLOUDY    34  32  91 CALM      30.06R
6HR MIN TEMP:  31; 6HR MAX TEMP:  37;

LADYSMITH      CLOUDY    35  32  89 CALM      30.07R
6HR MIN TEMP:  31; 6HR MAX TEMP:  36;

EAU CLAIRE     MOSUNNY   37  32  82 CALM      30.05R
6HR MIN TEMP:  30; 6HR MAX TEMP:  40;

MENOMONIE      CLOUDY    39  34  81 CALM      30.06R
6HR MIN TEMP:  33; 6HR MAX TEMP:  39;

NEW RICHMOND   LGT RAIN  41  34  75 E5        30.06R
6HR MIN TEMP:  35; 6HR MAX TEMP:  45;

OSCEOLA        CLOUDY    43  37  80 CALM      30.09R
6HR MIN TEMP:  34; 6HR MAX TEMP:  43;

$$

WIZ003>005-009-010-017-018-051300-
NORTH CENTRAL WISCONSIN

CITY           SKY/WX    TMP DP  RH WIND       PRES   REMARKS
MANITOWISH WTR SUNNY     31  31 100 CALM      30.01S
6HR MIN TEMP:  26; 6HR MAX TEMP:  31;

ARBOR VITAE    SUNNY     32  31  94 CALM      30.02S
6HR MIN TEMP:  29; 6HR MAX TEMP:  33;

WOODRUFF       SUNNY     32  31  94 CALM      30.02S
6HR MIN TEMP:  29; 6HR MAX TEMP:  33;

RHINELANDER    SUNNY     34  30  85 CALM      30.03R
6HR MIN TEMP:  25; 6HR MAX TEMP:  36;

EAGLE RIVER    SUNNY     31  31 100 CALM      30.01F
LAND O LAKES   SUNNY     30  30  98 CALM      30.03R
6HR MIN TEMP:  25; 6HR MAX TEMP:  30;

PHILLIPS       MOSUNNY   32  31  97 CALM      30.03R
6HR MIN TEMP:  27; 6HR MAX TEMP:  32;

TOMAHAWK       CLOUDY    32  31  96 CALM      30.04R
6HR MIN TEMP:  26; 6HR MAX TEMP:  32;

MEDFORD        MOSUNNY   33  32  96 CALM      30.03S
6HR MIN TEMP:  30; 6HR MAX TEMP:  36;

MERRILL        MOSUNNY   31  29  94 CALM      30.04R
$$

WIZ029-030-035-036-043>047-051300-
CENTRAL WISCONSIN

CITY           SKY/WX    TMP DP  RH WIND       PRES   REMARKS
WAUSAU         MOSUNNY   40  32  73 N7        30.02R
6HR MIN TEMP:  35; 6HR MAX TEMP:  41;

MOSINEE        SUNNY     37  34  87 N6        30.04R WCI  33
MARSHFIELD     MOSUNNY   39  33  79 NW3       30.03R
6HR MIN TEMP:  34; 6HR MAX TEMP:  43;

STEVENS POINT  SUNNY     35  31  87 N3        30.04R
6HR MIN TEMP:  29; 6HR MAX TEMP:  35;

WAUPACA        MOSUNNY   39  33  76 N3        30.03R
6HR MIN TEMP:  36; 6HR MAX TEMP:  42;

WAUTOMA        NOT AVBL
WISC RAPIDS    SUNNY     39  32  76 N3        30.05R
6HR MIN TEMP:  31; 6HR MAX TEMP:  42;

CAMP DOUGLAS   MOSUNNY   34  34 100 W5        30.04S WCI  30
$$

WIZ011>013-019>022-031-037>040-048>050-051300-
NORTHEAST WISCONSIN

CITY           SKY/WX    TMP DP  RH WIND       PRES   REMARKS
ANTIGO         SUNNY     34  32  92 CALM      30.02R
6HR MIN TEMP:  30; 6HR MAX TEMP:  34;

SHAWANO        SUNNY     40  33  76 N6        30.03S
6HR MIN TEMP:  37; 6HR MAX TEMP:  41;

OCONTO         SUNNY     37  33  88 N7        30.02S WCI  31
6HR MIN TEMP:  33; 6HR MAX TEMP:  37;

STURGEON BAY   SUNNY     39  34  81 N13       30.04R WCI  32
6HR MIN TEMP:  37; 6HR MAX TEMP:  39;

GREEN BAY      SUNNY     39  33  79 N8        30.02R WCI  33
6HR MIN TEMP:  33; 6HR MAX TEMP:  39;

MANITOWOC      SUNNY     40  34  79 NW10      30.01R WCI  33
6HR MIN TEMP:  37; 6HR MAX TEMP:  40;

APPLETON       SUNNY     37  30  75 N9        30.00R WCI  31
CLINTONVILLE   SUNNY     37  32  81 N3        30.03R
OSHKOSH        SUNNY     39  32  76 N9        30.01R WCI  33
6HR MIN TEMP:  33; 6HR MAX TEMP:  40;

$$

WIZ032>034-041-042-053>061-051300-
SOUTHWEST WISCONSIN

CITY           SKY/WX    TMP DP  RH WIND       PRES   REMARKS
LA CROSSE      SUNNY     42  35  76 CALM      30.05R
6HR MIN TEMP:  36; 6HR MAX TEMP:  49;

SPARTA         SUNNY     32  30  92 CALM      30.06S
6HR MIN TEMP:  28; 6HR MAX TEMP:  35;

VIROQUA        SUNNY     39  33  78 N3        30.04R
6HR MIN TEMP:  35; 6HR MAX TEMP:  43;

BOSCOBEL       SUNNY     39  36  89 CALM      30.05R
6HR MIN TEMP:  33; 6HR MAX TEMP:  46;

PRAIRIE DU CHI SUNNY     38  34  84 CALM      30.05R
6HR MIN TEMP:  36; 6HR MAX TEMP:  45;

PLATTEVILLE    SUNNY     41  36  82 N5        30.02R
6HR MIN TEMP:  37; 6HR MAX TEMP:  44;

$$

WIZ056-057-062-063-064-067-068-051300-
SOUTH CENTRAL WISCONSIN

CITY           SKY/WX    TMP DP  RH WIND       PRES   REMARKS
REEDSBURG      SUNNY     39  33  81 CALM      30.04R
6HR MIN TEMP:  35; 6HR MAX TEMP:  44;

BARABOO/DELLS  SUNNY     39  32  75 N5        30.03R
6HR MIN TEMP:  35; 6HR MAX TEMP:  44;

LONE ROCK      SUNNY     39  35  86 CALM      30.05R
6HR MIN TEMP:  34; 6HR MAX TEMP:  48;

MINERAL POINT  SUNNY     41  34  75 N5        30.03R
MADISON        MOSUNNY   38  32  79 N6        30.02R WCI  33
6HR MIN TEMP:  34; 6HR MAX TEMP:  42;

MIDDLETON      SUNNY     39  35  84 N3        30.02S
6HR MIN TEMP:  33; 6HR MAX TEMP:  42;

WATERTOWN      SUNNY     37  35  91 N7        30.01R WCI  32
6HR MIN TEMP:  35; 6HR MAX TEMP:  40;

MONROE         SUNNY     37  34  87 N9        30.00R WCI  31
JANESVILLE     SUNNY     39  36  87 N8        29.99R WCI  34
$$

WIZ051-052-058>065-066-070>072-051300-
SOUTHEAST WISCONSIN

CITY           SKY/WX    TMP DP  RH WIND       PRES   REMARKS
MILWAUKEE      PTSUNNY   42  33  70 N17G23    29.98R
6HR MIN TEMP:  40; 6HR MAX TEMP:  42;

WAUKESHA       PTSUNNY   37  32  81 NW6       29.99R WCI  33
MILWAUKEE/TIMM CLOUDY    39  32  75 N6        29.99R WCI  35
RACINE         CLOUDY    42  33  70 N17       29.99R
6HR MIN TEMP:  40; 6HR MAX TEMP:  42;

BURLINGTON     PTSUNNY   37  32  82 N6        29.97R WCI  32
6HR MIN TEMP:  36; 6HR MAX TEMP:  38;

KENOSHA        SUNNY     40  33  76 N5        29.97R
6HR MIN TEMP:  38; 6HR MAX TEMP:  42;

FOND DU LAC    SUNNY     39  33  79 N8        30.01R WCI  33
6HR MIN TEMP:  34; 6HR MAX TEMP:  42;

SHEBOYGAN      SUNNY     38  32  79 N8        29.99R WCI  32
6HR MIN TEMP:  37; 6HR MAX TEMP:  39;

WEST BEND      PTSUNNY   37  32  81 NW6       29.99R WCI  33
JUNEAU         SUNNY     37  32  83 NW10      30.02R WCI  29
6HR MIN TEMP:  35; 6HR MAX TEMP:  40;

$$

LSZ147-162-051300-
LAKE SUPERIOR

STATION/POSITION TIME  TEMP    WIND        PRES    WAVE
                       AIR SEA DIR/SP/G            HT/PER
                 (UTC) (F)     (DEG/KT/KT) (MB)    (FT/S)
W MID LAKE BUOY  1150   37 37  190/  6/  8 1017.4R   1
DEVILS ISLAND    1200   39     210/  8/ 10 1017.1R
PORT WING        1140   35     170/  4/  5 1016.9R
SAXON HARBOR     1100   33     180/  2/  5 1016.6R
$$

LMZ867-665-643>646-051300-
LAKE MICHIGAN

STATION/POSITION TIME  TEMP    WIND        PRES    WAVE
                       AIR SEA DIR/SP/G            HT/PER
                 (UTC) (F)     (DEG/KT/KT) (MB)    (FT/S)
CHAMBERS ISLAND  1100   38     340/ 10/ 11 1016.3R
N MID LAKE BUOY  1150   38 38  340/ 12/ 14 1015.7R   2/ 3
NORTHPORT PIER   112C1F1C2F2C3F3C4F4C5F5C6F6C7F7C8M1C9M2Ca!



USA.gov is the U.S. government's official web portal to all federal, state and local government web resources and services.